North Bend, OR

11:52 AM PDT on May 23, 2018 (GMT -0700)
North Bend Municipal

Weather History for KOTH - July, 2012

Change the Weather History Date:

Thursday, July 12, 2012

  Actual Average Record
Temperature  
Mean Temperature 60 °F 59 °F  
Max Temperature 64 °F 64 °F 78 °F (1925)
Min Temperature 55 °F 53 °F 39 °F (1919)
Degree Days  
Heating Degree Days 5 6  
Month to date heating degree days 69 83  
Since 1 June heating degree days 321 350  
Since 1 July heating degree days 69 83  
Growing Degree Days 10 (Base 50)    
Moisture  
Dew Point 55 °F    
Average Humidity 88    
Maximum Humidity 100    
Minimum Humidity 72    
Precipitation  
Precipitation 0.00 in 0.02 in 0.15 in (2006)
Month to date precipitation 0.11 0.26  
Year to date precipitation 28.47 36.38  
Sea Level Pressure  
Sea Level Pressure 30.07 in    
Wind  
Wind Speed 9 mph (North)    
Max Wind Speed 16 mph    
Max Gust Speed 22 mph    
Visibility 10 miles    
Events      
T = Trace of Precipitation, MM = Missing Value Source: NWS Daily Summary

Daily Weather History Graph

Daily Weather History Graph

Search for Another Location

Airport or City:

Astronomy

Jul. 12, 2012 Rise Set
Actual Time 5:48 AM PDT 8:56 PM PDT
Civil Twilight 5:13 AM PDT 9:31 PM PDT
Nautical Twilight 4:28 AM PDT 10:16 PM PDT
Astronomical Twilight 3:34 AM PDT 11:09 PM PDT
Moon 12:58 AM PDT (7/12) 3:32 PM PDT (7/12)
Length of Visible Light 16h 18m
Length of Day
15h 08m
Waning Crescent, 34% of the Moon is Illuminated
Jul 12
Waning Crescent
Jul 18
New
Jul 26
First Quarter
Aug 1
Full
Aug 9
Last Quarter

Hourly Weather History & Observations

Time (PDT) Temp. Dew Point Humidity Pressure Visibility Wind Dir Wind Speed Gust Speed Precip Events Conditions
12:15 AM 55.4 °F 55.4 °F 100% 30.06 in 10.0 mi North 9.2 mph - N/A   Overcast
12:35 AM 55.4 °F 55.4 °F 100% 30.06 in 10.0 mi North 8.1 mph - N/A   Overcast
12:55 AM 55.4 °F 55.4 °F 100% 30.06 in 10.0 mi North 10.4 mph - N/A   Overcast
1:15 AM 55.4 °F 55.4 °F 100% 30.06 in 10.0 mi North 8.1 mph - N/A   Overcast
1:35 AM 55.4 °F 55.4 °F 100% 30.06 in 10.0 mi NNE 8.1 mph - N/A   Overcast
1:55 AM 55.4 °F 55.4 °F 100% 30.06 in 10.0 mi NNE 6.9 mph - N/A   Overcast
2:15 AM 55.4 °F 55.4 °F 100% 30.06 in 9.0 mi North 5.8 mph - N/A   Overcast
2:35 AM 55.4 °F 55.4 °F 100% 30.06 in 7.0 mi North 4.6 mph - N/A   Overcast
2:55 AM 55.4 °F 55.4 °F 100% 30.06 in 7.0 mi NNW 5.8 mph - N/A   Overcast
3:15 AM 55.4 °F 55.4 °F 100% 30.06 in 5.0 mi North 5.8 mph - N/A   Overcast
3:35 AM 55.4 °F 55.4 °F 100% 30.05 in 7.0 mi North 6.9 mph - N/A   Overcast
3:55 AM 55.4 °F 55.4 °F 100% 30.05 in 8.0 mi North 5.8 mph - N/A   Overcast
4:15 AM 55.4 °F 55.4 °F 100% 30.05 in 7.0 mi North 5.8 mph - N/A   Overcast
4:35 AM 55.4 °F 55.4 °F 100% 30.06 in 10.0 mi North 5.8 mph - N/A   Overcast
4:55 AM 55.4 °F 55.4 °F 100% 30.06 in 10.0 mi North 5.8 mph - N/A   Overcast
5:15 AM 55.4 °F 55.4 °F 100% 30.06 in 7.0 mi NNW 4.6 mph - N/A   Overcast
5:35 AM 55.4 °F 55.4 °F 100% 30.06 in 7.0 mi North 3.5 mph - N/A   Overcast
5:55 AM 55.4 °F 55.4 °F 100% 30.06 in 9.0 mi North 3.5 mph - N/A   Overcast
6:15 AM 55.4 °F 55.4 °F 100% 30.06 in 10.0 mi North 4.6 mph - N/A   Overcast
6:35 AM 55.4 °F 53.6 °F 94% 30.06 in 10.0 mi NNE 4.6 mph - N/A   Overcast
6:55 AM 55.4 °F 53.6 °F 94% 30.07 in 10.0 mi North 4.6 mph - N/A   Overcast
7:15 AM 55.4 °F 55.4 °F 100% 30.06 in 10.0 mi NE 3.5 mph - N/A   Overcast
7:35 AM 57.2 °F 53.6 °F 88% 30.07 in 10.0 mi North 5.8 mph - N/A   Overcast
7:55 AM 55.4 °F 53.6 °F 94% 30.07 in 8.0 mi North 6.9 mph - N/A   Overcast
8:15 AM 55.4 °F 55.4 °F 100% 30.07 in 8.0 mi North 5.8 mph - N/A   Overcast
8:35 AM 55.4 °F 55.4 °F 100% 30.07 in 8.0 mi NNW 5.8 mph - N/A   Overcast
8:55 AM 55.4 °F 53.6 °F 94% 30.07 in 10.0 mi NNW 5.8 mph - N/A   Overcast
9:15 AM 57.2 °F 53.6 °F 88% 30.08 in 10.0 mi North 6.9 mph - N/A   Overcast
9:35 AM 57.2 °F 53.6 °F 88% 30.08 in 10.0 mi North 6.9 mph - N/A   Overcast
9:55 AM 57.2 °F 55.4 °F 94% 30.08 in 10.0 mi North 8.1 mph - N/A   Overcast
10:15 AM 57.2 °F 53.6 °F 88% 30.08 in 10.0 mi NNW 6.9 mph - N/A   Overcast
10:35 AM 59.0 °F 55.4 °F 88% 30.08 in 10.0 mi NNW 9.2 mph - N/A   Overcast
10:55 AM 59.0 °F 55.4 °F 88% 30.08 in 10.0 mi North 10.4 mph - N/A   Overcast
11:15 AM 59.0 °F 55.4 °F 88% 30.08 in 10.0 mi North 11.5 mph - N/A   Overcast
11:35 AM 59.0 °F 55.4 °F 88% 30.09 in 10.0 mi NNW 10.4 mph - N/A   Overcast
11:55 AM 60.8 °F 55.4 °F 82% 30.08 in 10.0 mi NNW 10.4 mph - N/A   Overcast
12:15 PM 60.8 °F 55.4 °F 82% 30.08 in 10.0 mi North 13.8 mph - N/A   Overcast
12:35 PM 60.8 °F 53.6 °F 77% 30.09 in 10.0 mi North 10.4 mph - N/A   Overcast
12:55 PM 60.8 °F 55.4 °F 82% 30.09 in 10.0 mi North 11.5 mph - N/A   Overcast
1:15 PM 60.8 °F 53.6 °F 77% 30.09 in 10.0 mi North 12.7 mph 17.3 mph N/A   Overcast
1:35 PM 62.6 °F 53.6 °F 72% 30.08 in 10.0 mi North 13.8 mph - N/A   Overcast
1:55 PM 62.6 °F 53.6 °F 72% 30.08 in 10.0 mi North 12.7 mph 17.3 mph N/A   Overcast
2:15 PM 64.4 °F 55.4 °F 73% 30.08 in 10.0 mi NNW 12.7 mph - N/A   Overcast
2:35 PM 64.4 °F 55.4 °F 73% 30.08 in 10.0 mi North 16.1 mph 19.6 mph N/A   Overcast
2:55 PM 64.4 °F 55.4 °F 73% 30.08 in 10.0 mi North 12.7 mph 18.4 mph N/A   Overcast
3:15 PM 64.4 °F 55.4 °F 73% 30.07 in 10.0 mi NNW 16.1 mph 19.6 mph N/A   Mostly Cloudy
3:35 PM 62.6 °F 55.4 °F 77% 30.08 in 10.0 mi NNW 13.8 mph 19.6 mph N/A   Partly Cloudy
3:55 PM 62.6 °F 55.4 °F 77% 30.07 in 10.0 mi NW 16.1 mph 20.7 mph N/A   Partly Cloudy
4:15 PM 62.6 °F 55.4 °F 77% 30.07 in 10.0 mi NNW 13.8 mph 18.4 mph N/A   Clear
4:35 PM 62.6 °F 53.6 °F 72% 30.07 in 10.0 mi NNW 15.0 mph 20.7 mph N/A   Clear
4:55 PM 62.6 °F 55.4 °F 77% 30.06 in 10.0 mi NNW 15.0 mph 20.7 mph N/A   Clear
5:15 PM 62.6 °F 53.6 °F 72% 30.06 in 10.0 mi North 11.5 mph - N/A   Scattered Clouds
5:35 PM 62.6 °F 53.6 °F 72% 30.06 in 10.0 mi North 17.3 mph 20.7 mph N/A   Partly Cloudy
5:55 PM 60.8 °F 53.6 °F 77% 30.06 in 10.0 mi North 11.5 mph 21.9 mph N/A   Mostly Cloudy
6:15 PM 62.6 °F 53.6 °F 72% 30.06 in 10.0 mi North 15.0 mph - N/A   Mostly Cloudy
6:35 PM 60.8 °F 53.6 °F 77% 30.05 in 10.0 mi North 12.7 mph - N/A   Partly Cloudy
6:55 PM 60.8 °F 53.6 °F 77% 30.05 in 10.0 mi North 15.0 mph 19.6 mph N/A   Partly Cloudy
7:15 PM 60.8 °F 53.6 °F 77% 30.05 in 10.0 mi North 12.7 mph 19.6 mph N/A   Partly Cloudy
7:35 PM 60.8 °F 55.4 °F 82% 30.05 in 10.0 mi North 12.7 mph 18.4 mph N/A   Clear
7:55 PM 60.8 °F 53.6 °F 77% 30.06 in 10.0 mi North 12.7 mph - N/A   Clear
8:15 PM 60.8 °F 53.6 °F 77% 30.06 in 10.0 mi North 10.4 mph 17.3 mph N/A   Clear
8:35 PM 59.0 °F 53.6 °F 82% 30.06 in 10.0 mi North 9.2 mph - N/A   Clear
8:55 PM 57.2 °F 53.6 °F 88% 30.06 in 10.0 mi NNW 9.2 mph - N/A   Clear
9:15 PM 57.2 °F 53.6 °F 88% 30.06 in 10.0 mi NNW 5.8 mph - N/A   Clear
9:35 PM 55.4 °F 53.6 °F 94% 30.07 in 10.0 mi NNW 4.6 mph - N/A   Clear
9:55 PM 55.4 °F 53.6 °F 94% 30.07 in 10.0 mi NNW 4.6 mph - N/A   Clear
10:15 PM 55.4 °F 53.6 °F 94% 30.07 in 10.0 mi NNW 4.6 mph - N/A   Scattered Clouds
10:35 PM 55.4 °F 53.6 °F 94% 30.08 in 10.0 mi NNW 3.5 mph - N/A   Overcast
10:55 PM 57.2 °F 53.6 °F 88% 30.08 in 10.0 mi North 6.9 mph - N/A   Overcast
11:15 PM 57.2 °F 53.6 °F 88% 30.08 in 10.0 mi North 8.1 mph - N/A   Overcast
11:35 PM 57.2 °F 53.6 °F 88% 30.08 in 10.0 mi North 10.4 mph - N/A   Overcast
11:55 PM 57.2 °F 53.6 °F 88% 30.07 in 10.0 mi North 12.7 mph - N/A   Overcast